Location: Caltech
(34.1382°N, 118.1253°W)
Time: 03:23:51
(UTC-07:00)

ADEOS II - Visible Passes

Search period start: 01 October 2016 00:00
Search period end: 11 October 2016 00:00
Orbit: 799 x 802 km, 98.3° (Epoch: 30 September)

Date Brightness Start Highest point End Pass type
(mag) Time Alt. Az. Time Alt. Az. Time Alt. Az.
01 Oct 4.4 04:07:16 10° NE 04:11:10 21° E 04:15:02 10° SE visible
01 Oct 2.5 05:46:06 10° N 05:50:58 39° WNW 05:55:49 10° SW visible
02 Oct 5.0 03:43:27 10° ENE 03:44:33 11° E 03:45:41 10° ESE visible
02 Oct 2.0 05:19:28 10° N 05:24:44 72° WNW 05:29:57 10° SSW visible
03 Oct 2.5 04:53:10 10° NNE 04:58:24 62° E 05:03:35 10° S visible
04 Oct 3.6 04:27:14 10° NNE 04:31:58 33° E 04:36:41 10° SSE visible
04 Oct 3.1 06:07:16 10° NNW 06:11:29 25° WNW 06:15:41 10° WSW visible
05 Oct 4.5 04:01:52 10° NE 04:05:27 18° E 04:09:01 10° SE visible
05 Oct 2.4 05:40:21 10° N 05:45:20 44° WNW 05:50:17 10° SW visible
06 Oct 2.0 05:13:48 10° N 05:19:04 81° WNW 05:24:20 10° SSW visible
07 Oct 2.7 04:47:33 10° NNE 04:52:43 55° E 04:57:51 10° S visible
08 Oct 3.8 04:21:42 10° NE 04:26:16 30° E 04:30:49 10° SSE visible
08 Oct 3.0 06:01:27 10° NNW 06:05:52 28° WNW 06:10:16 10° SW visible
09 Oct 4.7 03:56:31 10° NE 03:59:45 16° E 04:02:56 10° SE visible
09 Oct 2.2 05:34:36 10° N 05:39:41 50° WNW 05:44:44 10° SSW visible
10 Oct 2.0 05:08:07 10° NNE 05:13:24 89° E 05:18:40 10° SSW visible
